This is the latest recevied weather packets stored in our database for station/object CYYJ. If no packets are shown the sender has not sent any weather packets the latest 10 day(s).
| Time | Temp. | Humidity | Pressure | Rain* | Wind** | Luminosity | Snow |
|---|---|---|---|---|---|---|---|
| 1777771402 | 22.78° C | 40% | 1013.9 hPa | - | - | - | - |
| 1777767200 | 22.78° C | 43% | 1014.2 hPa | - | - | - | - |
| 1777766605 | 21.67° C | 46% | 1014.9 hPa | - | - | - | - |
| 1777766002 | 21.67° C | 46% | 1014.9 hPa | - | - | - | - |
| 1777764806 | 21.67° C | 46% | 1014.9 hPa | - | - | - | - |
| 1777764206 | 21.67° C | 46% | 1014.9 hPa | - | - | - | - |
| 1777761207 | 22.78° C | 46% | 1015.6 hPa | - | - | - | - |
| 1777760601 | 22.78° C | 46% | 1015.6 hPa | - | - | - | - |
| 1777760005 | 22.78° C | 46% | 1015.6 hPa | - | - | - | - |
| 1777759405 | 22.78° C | 49% | 1016.3 hPa | - | - | - | - |
| 1777758201 | 22.78° C | 49% | 1016.3 hPa | - | - | - | - |
| 1777751605 | 20.56° C | 60% | 1017.3 hPa | - | - | - | - |
| 1777737330 | - | - | 1012.2 hPa | - | - | - | - |
| 1777736007 | - | - | 1012.2 hPa | - | - | - | - |
| 1777735402 | - | - | 1012.2 hPa | - | - | - | - |
| 1777734803 | - | - | 1012.2 hPa | - | - | - | - |
| 1777732405 | 11.67° C | 100% | 1017.3 hPa | - | - | - | - |
| 1777731803 | 11.67° C | 100% | 1017.3 hPa | - | - | - | - |
| 1777731203 | 11.67° C | 100% | 1017.3 hPa | - | - | - | - |
| 1777730606 | 10.56° C | 100% | 1011.5 hPa | - | - | - | - |
| 1777730006 | 10.56° C | 100% | 1011.5 hPa | - | - | - | - |
| 1777728807 | 10.56° C | 100% | 1011.5 hPa | - | - | - | - |
| 1777728206 | 10.56° C | 100% | 1011.5 hPa | - | - | - | - |
| 1777727605 | 10.56° C | 100% | 1011.5 hPa | - | - | - | - |
| 1777723405 | 10° C | 99% | 1016.3 hPa | - | - | - | - |
* Rain since midnight (hover to see other rain measurements)
** Current wind speed in m/s (hover to see current wind gust speed)